Regional Weather Roundup
Issued by NWS Mobile, AL

Home | Current Version | Previous Version | Text Only | Print | Product List | Glossary On
Versions: 1 2 3 4 5 6 7 8 9 10 11 12 13 14 15 16 17 18 19 20 21 22 23 24 25 26 27
000
ASUS44 KMOB 290912
RWRMOB
REGIONAL WEATHER ROUNDUP
NATIONAL WEATHER SERVICE MOBILE AL
400 AM CDT THU JUN 29 2017

NOTE: "FAIR" INDICATES FEW OR NO CLOUDS BELOW 12,000 FEET WITH NO
      SIGNIFICANT WEATHER AND/OR OBSTRUCTIONS TO VISIBILITY.

  * THESE STATIONS ARE PART OF THE UNIVERSITY OF SOUTH ALABAMA
    MESONET AND ARE NOT UNDER NWS OR FAA QUALITY CONTROL.

ALZ061>064-291000-
COASTAL ALABAMA

CITY           SKY/WX    TMP DP  RH WIND       PRES   REMARKS
MOBILE REG APT CLOUDY    76  74  93 SE7       30.01F
BROOKLEY FIELD CLOUDY    79  77  94 SE7       30.02S
USA CAMPUS*      N/A     73  72  94 E5        30.00F
DOG RIVER*       N/A    N/A N/A N/A MISG        N/A


CITY           SKY/WX    TMP DP  RH WIND       PRES   REMARKS
GULF SHORES    CLOUDY    78  76  94 SE6       30.01S

$$

ALZ051>060-291000-
INTERIOR SOUTHWEST AND SOUTH CENTRAL ALABAMA

CITY           SKY/WX    TMP DP  RH WIND       PRES   REMARKS
GREENVILLE     LGT RAIN  74  70  87 SE3       30.05S
EVERGREEN      CLOUDY    73  71  93 CALM      30.05R
ATMORE*        NOT AVBL
ANDALUSIA/OPP  LGT RAIN  76  72  87 VRB5      30.06R
ANDALUSIA*       N/A     73  72  94 E6        30.06S
FLORALA APT    LGT RAIN  73  71  93 SE3       30.08R
FLORALA*         N/A     73  72  94 CALM      30.76S

$$

FLZ001>006-291000-
WESTERN FLORIDA PANHANDLE

CITY           SKY/WX    TMP DP  RH WIND       PRES   REMARKS
PENSACOLA      CLOUDY    77  73  87 E6        30.03R
NAS PENSACOLA  CLOUDY    80  72  76 SE7       30.02R
MILTON         RAIN      72  72 100 E6        30.05R FOG
WHTNG S FIELD  LGT RAIN  76  73  91 SE5       30.05R


CITY           SKY/WX    TMP DP  RH WIND       PRES   REMARKS
JAY*             N/A     73  72  94 SE12      30.05R
DUKE FIELD     MOCLDY    72  70  95 CALM      30.05R
CRESTVIEW      LGT RAIN  72  70  93 CALM      30.07R
VALPARAISO     LGT RAIN  76  73  92 NE5       30.04S
DESTIN         MOCLDY    78  78 100 E5        30.04R

$$

MSZ076-079-291000-
INTERIOR SOUTHEAST MISSISSIPPI

CITY           SKY/WX    TMP DP  RH WIND       PRES   REMARKS
LEAKESVILLE*   NOT AVBL
AGRICOLA*        N/A     73  73 100 CALM      29.99F

$$

MARINE OBSERVATIONS

STATION/POSITION TIME  TEMP    WIND        PRES    WAVE
                       AIR SEA DIR/SP/G            HT/PER
                 (UTC) (F)     (DEG/KT/KT) (MB)    (FT/S)
PASCAGOULA       0848   76     150/  8/ 11 1015.4R
PETIT BOIS ISLND 0848   78     130/ 10/ 13 1016.0F
GRAND BAY        0730   81     150/ 15     1017.0S
KATRINA CUT      0830   80     170/ 17     1015.2F
CEDAR POINT      0830   80     160/ 16     1015.6F
E DAUPHIN ISLAND 0800   80     160/ 18/ 19 1015.4F
MIDDLE BAY LIGHT 0830   79     150/ 14     1015.9F
USCG MOBILE BAY  0848   76 80  110/  7/  8 1016.6F
STATE DOCKS      0848   75 78              1016.0F
MEAHER PARK      0830   75      90/  3     1015.9F
FORT MORGAN      0848   80     160/ 19/ 21   N/A
12 S ORANGE BCH  0750   80 82  150/ 16/ 17 1015.5F   3/ 4
PENSACOLA BAY    0842   78 82              1016.9R
64 S DAUPHIN ISL 0850   78 81  170/ 14/ 17 1016.1R   2/ 4
67 S FORT MORGAN 0830   77     170/ 16     1015.9F

$$

SELECTED LOCATIONS ACROSS THE REGION

CITY           SKY/WX    TMP DP  RH WIND       PRES   REMARKS
NEW ORLEANS    LGT RAIN  76  74  93 S10       29.96S
GULFPORT       RAIN      76  74  93 MISG      29.97R FOG
PASCAGOULA AP  MOCLDY    76  69  79 S8        29.98F
PASCAGOULA*    NOT AVBL
HATTIESBURG    CLOUDY    73  72  96 SE5       29.99F
LAUREL         CLOUDY    72  70  94 CALM      30.01S
MERIDIAN       CLOUDY    75  73  93 SE3       30.02S
JACKSON        CLOUDY    73  70  90 SE5       29.99F
MONTGOMERY     CLOUDY    75  71  87 E6        30.06S
TROY           CLOUDY    73  73 100 E5        30.08S
ASHFORD*         N/A     73  72  94 E6        30.06S
DOTHAN         CLOUDY    74  74 100 E5        30.11R
PANAMA CITY    RAIN      75  73  93 NE3       30.04S

$$





USA.gov is the U.S. government's official web portal to all federal, state and local government web resources and services.